This is the latest recevied weather packets stored in our database for station/object NW5W-12. If no packets are shown the sender has not sent any weather packets the latest 10 day(s).
| Time | Temp. | Humidity | Pressure | Rain* | Wind** | Luminosity | Snow |
|---|---|---|---|---|---|---|---|
| 1787985840 | 14.44° C | 91% | 1022.6 hPa | 0 mm | - | - | - |
| 1787985540 | 13.89° C | 91% | 1022.8 hPa | 0 mm | - | - | - |
| 1787985239 | 14.44° C | 92% | 1022.9 hPa | 0 mm | - | - | - |
| 1787984940 | 14.44° C | 91% | 1022.9 hPa | 0 mm | - | - | - |
| 1787984639 | 15° C | 90% | 1022.8 hPa | 0 mm | - | - | - |
| 1787984340 | 15° C | 86% | 1022.7 hPa | 0 mm | - | - | - |
| 1787984039 | 15.56° C | 83% | 1022.5 hPa | 0 mm | - | - | - |
| 1787983740 | 15.56° C | 82% | 1022.2 hPa | 0 mm | - | - | - |
| 1787983440 | 15.56° C | 81% | 1022 hPa | 0 mm | - | - | - |
| 1787983140 | 16.11° C | 79% | 1022.1 hPa | 0 mm | - | - | - |
| 1787982840 | 16.11° C | 77% | 1022.5 hPa | 0 mm | - | - | - |
| 1787982539 | 16.67° C | 73% | 1022.5 hPa | 0 mm | - | - | - |
| 1787982240 | 17.22° C | 68% | 1022.5 hPa | 0 mm | - | - | - |
| 1787981940 | 17.78° C | 66% | 1022.4 hPa | 0 mm | - | - | - |
| 1787981640 | 17.78° C | 65% | 1022 hPa | 0 mm | - | - | - |
| 1787981340 | 17.22° C | 68% | 1021.8 hPa | 0 mm | - | - | - |
| 1787981040 | 17.22° C | 68% | 1021.7 hPa | 0 mm | - | - | - |
| 1787980740 | 17.22° C | 68% | 1021.6 hPa | 0 mm | - | - | - |
| 1787980439 | 17.22° C | 68% | 1021.5 hPa | 0 mm | - | - | - |
| 1787980140 | 17.22° C | 69% | 1021.7 hPa | 0 mm | - | - | - |
| 1787979840 | 17.22° C | 69% | 1021.5 hPa | 0 mm | - | - | - |
| 1787979540 | 17.22° C | 69% | 1021.5 hPa | 0 mm | - | - | - |
| 1787979240 | 16.67° C | 69% | 1021.4 hPa | 0 mm | - | - | - |
| 1787978940 | 17.22° C | 70% | 1021.5 hPa | 0 mm | - | - | - |
| 1787978640 | 17.22° C | 70% | 1021.5 hPa | 0 mm | - | - | - |
* Rain since midnight (hover to see other rain measurements)
** Current wind speed in m/s (hover to see current wind gust speed)